Time,TemperatureF,DewpointF,PressureIn,WindDirection,WindDirectionDegrees,WindSpeedMPH,WindSpeedGustMPH,Humidity,HourlyPrecipIn,Conditions,Clouds,dailyrainin,SolarRadiationWatts/m^2,SoftwareType,DateUTC
2013-03-26 00:02:00,32.0,21.0,-100.00,North,358,6.0,13.0,63,0.00,,,0.00,0.000000,,2013-03-26 05:02:00,
2013-03-26 00:32:00,31.0,20.0,-100.00,North,359,6.0,13.0,63,0.00,,,0.00,0.000000,,2013-03-26 05:32:00,
2013-03-26 00:42:00,31.0,20.0,-100.00,North,359,6.0,13.0,63,0.00,,,0.00,0.000000,,2013-03-26 05:42:00,
2013-03-26 00:52:00,31.0,20.0,-100.00,North,359,6.0,13.0,63,0.00,,,0.00,0.000000,,2013-03-26 05:52:00,
2013-03-26 01:02:00,31.0,20.0,-100.00,North,359,6.0,13.0,63,0.00,,,0.00,0.000000,,2013-03-26 06:02:00,
2013-03-26 01:32:00,30.0,18.0,-100.00,North,8,4.0,11.0,60,0.00,,,0.00,0.000000,,2013-03-26 06:32:00,
2013-03-26 01:43:00,30.0,18.0,-100.00,North,8,4.0,11.0,60,0.00,,,0.00,0.000000,,2013-03-26 06:43:00,
2013-03-26 01:52:00,30.0,18.0,-100.00,North,8,4.0,11.0,60,0.00,,,0.00,0.000000,,2013-03-26 06:52:00,
2013-03-26 02:02:00,30.0,18.0,-100.00,North,8,4.0,11.0,60,0.00,,,0.00,0.000000,,2013-03-26 07:02:00,
2013-03-26 02:33:00,29.0,18.0,-100.00,North,6,5.0,10.0,63,0.00,,,0.00,0.000000,,2013-03-26 07:33:00,
2013-03-26 02:43:00,29.0,18.0,-100.00,North,6,5.0,10.0,63,0.00,,,0.00,0.000000,,2013-03-26 07:43:00,
2013-03-26 02:53:00,29.0,18.0,-100.00,North,6,5.0,10.0,63,0.00,,,0.00,0.000000,,2013-03-26 07:53:00,
2013-03-26 03:02:00,29.0,18.0,-100.00,North,6,5.0,10.0,63,0.00,,,0.00,0.000000,,2013-03-26 08:02:00,
2013-03-26 03:32:00,29.0,19.0,-100.00,North,356,5.0,11.0,65,0.00,,,0.00,0.000000,,2013-03-26 08:32:00,
2013-03-26 03:42:00,29.0,19.0,-100.00,North,356,5.0,11.0,65,0.00,,,0.00,0.000000,,2013-03-26 08:42:00,
2013-03-26 03:52:00,29.0,19.0,-100.00,North,356,5.0,11.0,65,0.00,,,0.00,0.000000,,2013-03-26 08:52:00,
2013-03-26 04:02:00,29.0,19.0,-100.00,North,356,5.0,11.0,65,0.00,,,0.00,0.000000,,2013-03-26 09:02:00,
2013-03-26 04:33:00,28.0,18.0,-100.00,NNW,333,5.0,7.0,65,0.00,,,0.00,0.000000,,2013-03-26 09:33:00,
2013-03-26 04:43:00,28.0,18.0,-100.00,NNW,333,5.0,7.0,65,0.00,,,0.00,0.000000,,2013-03-26 09:43:00,
2013-03-26 04:52:00,28.0,18.0,-100.00,NNW,333,5.0,7.0,65,0.00,,,0.00,0.000000,,2013-03-26 09:52:00,
2013-03-26 05:02:00,28.0,18.0,-100.00,NNW,333,5.0,7.0,65,0.00,,,0.00,0.000000,,2013-03-26 10:02:00,
2013-03-26 05:33:00,28.0,18.0,-100.00,NNW,338,5.0,10.0,66,0.00,,,0.00,0.000000,,2013-03-26 10:33:00,
2013-03-26 05:43:00,28.0,18.0,-100.00,NNW,338,5.0,10.0,66,0.00,,,0.00,0.000000,,2013-03-26 10:43:00,
2013-03-26 05:53:00,28.0,18.0,-100.00,NNW,338,5.0,10.0,66,0.00,,,0.00,0.000000,,2013-03-26 10:53:00,
2013-03-26 06:03:00,28.0,18.0,-100.00,NNW,338,5.0,10.0,66,0.00,,,0.00,0.000000,,2013-03-26 11:03:00,
2013-03-26 06:33:00,27.0,18.0,-100.00,NNW,332,3.0,10.0,68,0.00,,,0.00,0.000000,,2013-03-26 11:33:00,
2013-03-26 06:43:00,27.0,18.0,-100.00,NNW,332,3.0,10.0,68,0.00,,,0.00,0.000000,,2013-03-26 11:43:00,
2013-03-26 06:52:00,27.0,18.0,-100.00,NNW,332,3.0,10.0,68,0.00,,,0.00,0.000000,,2013-03-26 11:52:00,
2013-03-26 07:03:00,27.0,18.0,-100.00,NNW,332,3.0,10.0,68,0.00,,,0.00,0.000000,,2013-03-26 12:03:00,
2013-03-26 07:32:00,27.0,19.0,-100.00,NW,313,3.0,8.0,70,0.00,,,0.00,1.000000,,2013-03-26 12:32:00,
2013-03-26 07:43:00,27.0,19.0,-100.00,NW,313,3.0,8.0,70,0.00,,,0.00,1.000000,,2013-03-26 12:43:00,
2013-03-26 07:52:00,27.0,19.0,-100.00,NW,313,3.0,8.0,70,0.00,,,0.00,1.000000,,2013-03-26 12:52:00,
2013-03-26 08:03:00,27.0,19.0,-100.00,NW,313,3.0,8.0,70,0.00,,,0.00,1.000000,,2013-03-26 13:03:00,
2013-03-26 08:32:00,28.0,20.0,-100.00,NW,319,3.0,8.0,71,0.00,,,0.00,24.000000,,2013-03-26 13:32:00,
2013-03-26 08:42:00,28.0,20.0,-100.00,NW,319,3.0,8.0,71,0.00,,,0.00,24.000000,,2013-03-26 13:42:00,
2013-03-26 08:52:00,28.0,20.0,-100.00,NW,319,3.0,8.0,71,0.00,,,0.00,24.000000,,2013-03-26 13:52:00,
2013-03-26 09:02:00,28.0,20.0,-100.00,NW,319,3.0,8.0,71,0.00,,,0.00,24.000000,,2013-03-26 14:02:00,
2013-03-26 09:33:00,30.0,22.0,-100.00,NNW,340,6.0,11.0,72,0.00,,,0.00,98.000000,,2013-03-26 14:33:00,
2013-03-26 09:42:00,30.0,22.0,-100.00,NNW,340,6.0,11.0,72,0.00,,,0.00,98.000000,,2013-03-26 14:42:00,
2013-03-26 09:53:00,30.0,22.0,-100.00,NNW,340,6.0,11.0,72,0.00,,,0.00,98.000000,,2013-03-26 14:53:00,
2013-03-26 10:02:00,30.0,22.0,-100.00,NNW,340,6.0,11.0,72,0.00,,,0.00,98.000000,,2013-03-26 15:02:00,
2013-03-26 10:33:00,33.0,23.0,-100.00,NNW,346,7.0,12.0,67,0.00,,,0.00,227.000000,,2013-03-26 15:33:00,
2013-03-26 10:43:00,33.0,23.0,-100.00,NNW,346,7.0,12.0,67,0.00,,,0.00,227.000000,,2013-03-26 15:43:00,
2013-03-26 10:53:00,33.0,23.0,-100.00,NNW,346,7.0,12.0,67,0.00,,,0.00,227.000000,,2013-03-26 15:53:00,
2013-03-26 11:03:00,33.0,23.0,-100.00,NNW,346,7.0,12.0,67,0.00,,,0.00,227.000000,,2013-03-26 16:03:00,
2013-03-26 11:33:00,36.0,23.0,-100.00,North,354,8.0,16.0,60,0.00,,,0.00,394.000000,,2013-03-26 16:33:00,
2013-03-26 11:42:00,36.0,23.0,-100.00,North,354,8.0,16.0,60,0.00,,,0.00,394.000000,,2013-03-26 16:42:00,
2013-03-26 11:53:00,36.0,23.0,-100.00,North,354,8.0,16.0,60,0.00,,,0.00,394.000000,,2013-03-26 16:53:00,
2013-03-26 12:02:00,36.0,23.0,-100.00,North,354,8.0,16.0,60,0.00,,,0.00,394.000000,,2013-03-26 17:02:00,
2013-03-26 12:33:00,40.0,24.0,-100.00,NNW,340,9.0,15.0,52,0.00,,,0.00,537.000000,,2013-03-26 17:33:00,
2013-03-26 12:42:00,40.0,24.0,-100.00,NNW,340,9.0,15.0,52,0.00,,,0.00,537.000000,,2013-03-26 17:42:00,
2013-03-26 12:53:00,40.0,24.0,-100.00,NNW,340,9.0,15.0,52,0.00,,,0.00,537.000000,,2013-03-26 17:53:00,
2013-03-26 13:02:00,40.0,24.0,-100.00,NNW,340,9.0,15.0,52,0.00,,,0.00,537.000000,,2013-03-26 18:02:00,
2013-03-26 14:33:00,40.0,19.0,-100.00,NNW,333,8.0,18.0,43,-99.99,,,0.00,433.000000,,2013-03-26 19:33:00,
2013-03-26 14:42:00,40.0,19.0,-100.00,NNW,333,8.0,18.0,43,-99.99,,,0.00,433.000000,,2013-03-26 19:42:00,
2013-03-26 14:53:00,40.0,19.0,-100.00,NNW,333,8.0,18.0,43,-99.99,,,0.00,433.000000,,2013-03-26 19:53:00,
2013-03-26 15:02:00,40.0,19.0,-100.00,NNW,333,8.0,18.0,43,-99.99,,,0.00,433.000000,,2013-03-26 20:02:00,
2013-03-26 15:32:00,40.0,19.0,-100.00,NNW,338,8.0,14.0,43,0.00,,,0.00,256.000000,,2013-03-26 20:32:00,
2013-03-26 15:43:00,40.0,19.0,-100.00,NNW,338,8.0,14.0,43,0.00,,,0.00,256.000000,,2013-03-26 20:43:00,
2013-03-26 15:52:00,40.0,19.0,-100.00,NNW,338,8.0,14.0,43,0.00,,,0.00,256.000000,,2013-03-26 20:52:00,
2013-03-26 16:02:00,40.0,19.0,-100.00,NNW,338,8.0,14.0,43,0.00,,,0.00,256.000000,,2013-03-26 21:02:00,
2013-03-26 16:33:00,41.0,19.0,-100.00,NW,320,7.0,16.0,41,0.00,,,0.00,301.000000,,2013-03-26 21:33:00,
2013-03-26 16:43:00,41.0,19.0,-100.00,NW,320,7.0,16.0,41,0.00,,,0.00,301.000000,,2013-03-26 21:43:00,
2013-03-26 16:52:00,41.0,19.0,-100.00,NW,320,7.0,16.0,41,0.00,,,0.00,301.000000,,2013-03-26 21:52:00,
2013-03-26 17:02:00,41.0,19.0,-100.00,NW,320,7.0,16.0,41,0.00,,,0.00,301.000000,,2013-03-26 22:02:00,
2013-03-26 17:33:00,40.0,19.0,-100.00,NW,322,7.0,12.0,42,0.00,,,0.00,235.000000,,2013-03-26 22:33:00,
2013-03-26 17:42:00,40.0,19.0,-100.00,NW,322,7.0,12.0,42,0.00,,,0.00,235.000000,,2013-03-26 22:42:00,
2013-03-26 17:52:00,40.0,19.0,-100.00,NW,322,7.0,12.0,42,0.00,,,0.00,235.000000,,2013-03-26 22:52:00,
2013-03-26 18:01:00,40.0,19.0,-100.00,NW,322,7.0,12.0,42,0.00,,,0.00,235.000000,,2013-03-26 23:01:00,
2013-03-26 18:32:00,39.0,18.0,-100.00,NW,322,6.0,12.0,42,0.00,,,0.00,151.000000,,2013-03-26 23:32:00,
2013-03-26 18:43:00,39.0,18.0,-100.00,NW,322,6.0,12.0,42,0.00,,,0.00,151.000000,,2013-03-26 23:43:00,
2013-03-26 18:53:00,39.0,18.0,-100.00,NW,322,6.0,12.0,42,0.00,,,0.00,151.000000,,2013-03-26 23:53:00,
2013-03-26 19:02:00,39.0,18.0,-100.00,NW,322,6.0,12.0,42,0.00,,,0.00,151.000000,,2013-03-27 00:02:00,
2013-03-26 19:33:00,37.0,17.0,-100.00,NW,326,5.0,11.0,43,0.00,,,-99.99,49.000000,,2013-03-27 00:33:00,
2013-03-26 19:42:00,37.0,17.0,-100.00,NW,326,5.0,11.0,43,0.00,,,-99.99,49.000000,,2013-03-27 00:42:00,
2013-03-26 19:52:00,37.0,17.0,-100.00,NW,326,5.0,11.0,43,0.00,,,-99.99,49.000000,,2013-03-27 00:52:00,
2013-03-26 20:02:00,37.0,17.0,-100.00,NW,326,5.0,11.0,43,0.00,,,-99.99,49.000000,,2013-03-27 01:02:00,
2013-03-26 20:33:00,35.0,18.0,-100.00,WNW,293,2.0,8.0,49,0.00,,,0.00,2.000000,,2013-03-27 01:33:00,
2013-03-26 20:43:00,35.0,18.0,-100.00,WNW,293,2.0,8.0,49,0.00,,,0.00,2.000000,,2013-03-27 01:43:00,
2013-03-26 20:53:00,35.0,18.0,-100.00,WNW,293,2.0,8.0,49,0.00,,,0.00,2.000000,,2013-03-27 01:53:00,
2013-03-26 21:03:00,35.0,18.0,-100.00,WNW,293,2.0,8.0,49,0.00,,,0.00,2.000000,,2013-03-27 02:03:00,
2013-03-26 21:32:00,34.0,20.0,-100.00,WNW,301,2.0,4.0,55,0.00,,,-99.99,0.000000,,2013-03-27 02:32:00,
2013-03-26 21:42:00,34.0,20.0,-100.00,WNW,301,2.0,4.0,55,0.00,,,-99.99,0.000000,,2013-03-27 02:42:00,
2013-03-26 21:53:00,34.0,20.0,-100.00,WNW,301,2.0,4.0,55,0.00,,,-99.99,0.000000,,2013-03-27 02:53:00,
2013-03-26 22:02:00,34.0,20.0,-100.00,WNW,301,2.0,4.0,55,0.00,,,-99.99,0.000000,,2013-03-27 03:02:00,
2013-03-26 22:33:00,32.0,20.0,-100.00,West,278,2.0,3.0,62,0.00,,,0.00,0.000000,,2013-03-27 03:33:00,
2013-03-26 22:42:00,32.0,20.0,-100.00,West,278,2.0,3.0,62,0.00,,,0.00,0.000000,,2013-03-27 03:42:00,
2013-03-26 22:53:00,32.0,20.0,-100.00,West,278,2.0,3.0,62,0.00,,,0.00,0.000000,,2013-03-27 03:53:00,
2013-03-26 23:02:00,32.0,20.0,-100.00,West,278,2.0,3.0,62,0.00,,,0.00,0.000000,,2013-03-27 04:02:00,
2013-03-26 23:33:00,32.0,22.0,-100.00,WNW,295,1.0,3.0,65,0.00,,,0.00,0.000000,,2013-03-27 04:33:00,
2013-03-26 23:43:00,32.0,22.0,-100.00,WNW,295,1.0,3.0,65,0.00,,,0.00,0.000000,,2013-03-27 04:43:00,
2013-03-26 23:52:00,32.0,22.0,-100.00,WNW,295,1.0,3.0,65,0.00,,,0.00,0.000000,,2013-03-27 04:52:00,